Wichita, KS

3:36 PM CDT on March 25, 2017 (GMT -0500)
Wichita Eisenhower National Airport

Weather History for KICT - July, 2014

Change the Weather History Date:

Friday, July 25, 2014

  Actual Average Record
Temperature  
Mean Temperature 88 °F 81 °F  
Max Temperature 102 °F 93 °F 108 °F (2012)
Min Temperature 73 °F 70 °F 58 °F (1890)
Degree Days  
Heating Degree Days 0 0  
Month to date heating degree days 1 0  
Since 1 June heating degree days 1 6  
Since 1 July heating degree days 1 0  
Cooling Degree Days 23 16  
Month to date cooling degree days 306 395  
Year to date cooling degree days 915 860  
Since 1 June cooling degree days 648 724  
Growing Degree Days 38 (Base 50)    
Moisture  
Dew Point 66 °F    
Average Humidity 56    
Maximum Humidity 87    
Minimum Humidity 24    
Precipitation  
Precipitation 0.00 in 0.09 in 1.18 in (1944)
Month to date precipitation 2.86 2.75  
Year to date precipitation 19.39 19.81  
Snow  
Snow 0.00 in 0.00 in 0.00 in (2007)
Month to date snowfall 0.0 0.0  
Since 1 June snowfall 0.0 0.0  
Since 1 July snowfall 0.0 0.0  
Snow Depth 0.00 in    
Sea Level Pressure  
Sea Level Pressure 29.82 in    
Wind  
Wind Speed 17 mph (South)    
Max Wind Speed 26 mph    
Max Gust Speed 33 mph    
Visibility 10 miles    
Events      
T = Trace of Precipitation, MM = Missing Value Source: NWS Daily Summary

Daily Weather History Graph

Daily Weather History Graph

Search for Another Location

Airport or City:

Trip Planner

Search our weather history database for the weather conditions in past years. The results will help you decide how hot, cold, wet, or windy it might be!

Date:

Astronomy

Jul. 25, 2014 Rise Set
Actual Time 6:27 AM CDT 8:44 PM CDT
Civil Twilight 5:58 AM CDT 9:13 PM CDT
Nautical Twilight 5:21 AM CDT 9:50 PM CDT
Astronomical Twilight 4:41 AM CDT 10:29 PM CDT
Moon 5:27 AM CDT 7:43 PM CDT
Length of Visible Light 15h 15m
Length of Day
14h 16m
Waning Crescent, 1% of the Moon is Illuminated
Jul 25
Waning Crescent
Jul 26
New
Aug 3
First Quarter
Aug 10
Full
Aug 17
Last Quarter

Hourly Weather History & Observations

Time (CDT) Temp. Heat Index Dew Point Humidity Pressure Visibility Wind Dir Wind Speed Gust Speed Precip Events Conditions
12:53 AM 78.1 °F - 71.1 °F 79% 29.91 in 10.0 mi South 12.7 mph - N/A   Partly Cloudy
1:53 AM 78.1 °F - 71.1 °F 79% 29.90 in 10.0 mi South 13.8 mph - N/A   Scattered Clouds
2:53 AM 77.0 °F - 70.0 °F 79% 29.89 in 10.0 mi South 9.2 mph - N/A   Scattered Clouds
3:53 AM 75.0 °F - 70.0 °F 84% 29.89 in 10.0 mi South 11.5 mph - N/A   Partly Cloudy
4:53 AM 75.0 °F - 69.1 °F 82% 29.87 in 10.0 mi South 15.0 mph 24.2 mph N/A   Partly Cloudy
5:53 AM 73.0 °F - 69.1 °F 87% 29.87 in 10.0 mi South 12.7 mph - N/A   Scattered Clouds
6:53 AM 73.0 °F - 68.0 °F 84% 29.87 in 9.0 mi South 11.5 mph - N/A   Scattered Clouds
7:53 AM 75.0 °F - 68.0 °F 79% 29.88 in 10.0 mi South 12.7 mph - N/A   Scattered Clouds
8:53 AM 80.1 °F 82.3 °F 66.9 °F 64% 29.87 in 10.0 mi SSW 18.4 mph 26.5 mph N/A   Scattered Clouds
9:53 AM 84.0 °F 87.0 °F 68.0 °F 58% 29.85 in 10.0 mi SSW 19.6 mph 27.6 mph N/A   Scattered Clouds
10:53 AM 89.1 °F 93.7 °F 69.1 °F 52% 29.83 in 10.0 mi SSW 17.3 mph 25.3 mph N/A   Scattered Clouds
11:53 AM 93.2 °F 97.7 °F 68.0 °F 44% 29.87 in 9.0 mi SSW 19.6 mph 29.9 mph N/A   Partly Cloudy
12:53 PM 96.1 °F 99.9 °F 66.9 °F 38% 29.79 in 9.0 mi SW 23.0 mph 31.1 mph N/A   Partly Cloudy
1:53 PM 98.1 °F 101.2 °F 64.9 °F 34% 29.77 in 10.0 mi SSW 20.7 mph 29.9 mph N/A   Partly Cloudy
2:53 PM 100.0 °F 103.6 °F 64.9 °F 32% 29.77 in 10.0 mi SSW 20.7 mph 28.8 mph N/A   Partly Cloudy
3:53 PM 102.0 °F 103.9 °F 62.1 °F 27% 29.75 in 10.0 mi SSW 23.0 mph - N/A   Scattered Clouds
4:53 PM 102.0 °F 103.3 °F 61.0 °F 26% 29.73 in 10.0 mi SSW 21.9 mph 27.6 mph N/A   Scattered Clouds
5:53 PM 100.9 °F 100.5 °F 57.9 °F 24% 29.73 in 10.0 mi SSW 23.0 mph 32.2 mph N/A   Scattered Clouds
6:53 PM 99.0 °F 98.6 °F 59.0 °F 26% 29.72 in 10.0 mi SSW 18.4 mph 25.3 mph N/A   Scattered Clouds
7:53 PM 96.1 °F 96.0 °F 60.1 °F 30% 29.73 in 10.0 mi South 17.3 mph 24.2 mph N/A   Scattered Clouds
8:53 PM 90.0 °F 89.7 °F 60.1 °F 37% 29.74 in 10.0 mi South 12.7 mph - N/A   Scattered Clouds
9:53 PM 86.0 °F 88.2 °F 66.0 °F 51% 29.76 in 9.0 mi SSE 13.8 mph - N/A   Scattered Clouds
10:53 PM 86.0 °F 90.1 °F 69.1 °F 57% 29.79 in 10.0 mi South 16.1 mph - N/A   Partly Cloudy
11:53 PM 84.0 °F 87.0 °F 68.0 °F 58% 29.79 in 10.0 mi South 13.8 mph - N/A   Partly Cloudy